KC1UIX-13 Weather Reports


Display with metric or nautical units.
time (UTC)temp
F
wind
direction
speed
MPH
gust
MPH
rain 1hr
in
rain 24hr
in
rain mn
in
humidity
%
barometer
mb
20260502164016 50 255 1.0 5.0 0.00 0.13 0.12 92 1011.8
20260502163020 50 276 1.0 4.0 0.00 0.13 0.12 91 1012.0
20260502162020 51 289 1.0 5.0 0.00 0.13 0.12 89 1012.0
20260502161020 51 217 1.0 4.0 0.00 0.13 0.12 87 1011.9
20260502152018 51 291 1.0 4.0 0.00 0.13 0.12 91 1012.3
20260502151019 51 251 1.0 3.0 0.00 0.13 0.12 93 1012.4
20260502123018 47 228 1.0 2.0 0.00 0.01 0.00 92 1012.6
20260502122017 46 236 0.0 1.0 0.00 0.01 0.00 92 1012.4
20260502121018 46 217 0.0 2.0 0.00 0.01 0.00 92 1012.2
20260502115019 46 51 0.0 2.0 0.00 0.01 0.00 92 1012.1
20260502114019 46 44 0.0 1.0 0.00 0.01 0.00 91 1012.3
20260502113019 47 265 0.0 2.0 0.00 0.01 0.00 88 1012.6
20260502112019 47 12 0.0 2.0 0.00 0.01 0.00 85 1012.8
20260502111059 47 323 1.0 3.0 0.00 0.01 0.00 82 1012.6
20260502110039 47 332 1.0 3.0 0.00 0.01 0.00 81 1012.4
20260502105019 47 337 1.0 3.0 0.00 0.01 0.00 81 1012.3
20260502104020 47 338 1.0 3.0 0.00 0.01 0.00 81 1012.3
20260502103020 47 321 1.0 3.0 0.00 0.01 0.00 81 1012.4
20260502102017 47 291 0.0 2.0 0.00 0.01 0.00 80 1012.2
20260502101017 47 333 1.0 2.0 0.00 0.01 0.00 80 1012.1
20260502091018 43 23 0.0 2.0 0.00 0.01 0.00 81 1011.8
20260502071017 40 346 0.0 1.0 0.00 0.01 0.00 85 1012.6
20260502070017 40 356 0.0 2.0 0.00 0.01 0.00 85 1012.6
20260502065017 40 229 0.0 3.0 0.00 0.01 0.00 86 1012.6
20260502064040 39 230 0.0 1.0 0.00 0.01 0.00 86 1012.6
20260502063059 39 219 1.0 2.0 0.00 0.01 0.00 88 1012.4
20260502062018 39 282 0.0 1.0 0.00 0.01 0.00 87 1012.2
20260502061017 38 326 0.0 1.0 0.00 0.01 0.00 88 1012.1
20260502060018 39 0 0.0 1.0 0.00 0.01 0.00 87 1011.9
20260502055018 39 332 0.0 1.0 0.00 0.01 0.00 87 1011.9
20260502054018 38 305 0.0 2.0 0.00 0.01 0.00 86 1012.0
20260502053019 38 340 0.0 1.0 0.00 0.01 0.00 86 1012.0
20260502052019 37 22 0.0 1.0 0.00 0.01 0.00 88 1011.9
20260502051039 37 11 0.0 2.0 0.00 0.01 0.00 89 1011.8
20260502050039 37 2 0.0 2.0 0.00 0.01 0.00 88 1011.7
20260502045019 37 277 0.0 2.0 0.00 0.01 0.00 88 1011.7
20260502044039 37 317 0.0 2.0 0.00 0.01 0.00 89 1011.6
20260502043016 37 352 0.0 1.0 0.00 0.01 0.00 89 1011.6
20260502042040 38 347 0.0 1.0 0.00 0.01 0.00 89 1011.5
20260502041100 38 10 0.0 1.0 0.00 0.01 0.00 88 1011.5
20260502040019 38 300 0.0 1.0 0.00 0.01 0.00 87 1011.5
20260502035020 39 13 0.0 2.0 0.00 0.01 0.01 86 1011.4
20260502034017 39 17 0.0 2.0 0.00 0.01 0.01 85 1011.4
20260502033017 39 5 0.0 1.0 0.00 0.01 0.01 84 1011.4
20260502032017 39 8 0.0 2.0 0.00 0.01 0.01 84 1011.4
20260502031018 39 352 0.0 1.0 0.00 0.01 0.01 84 1011.4
20260502030018 40 300 0.0 1.0 0.00 0.01 0.01 81 1011.3
20260502025059 40 342 0.0 1.0 0.00 0.01 0.01 80 1011.3
20260502024018 40 338 0.0 1.0 0.00 0.01 0.01 80 1011.3
20260502023018 41 311 0.0 2.0 0.00 0.01 0.01 79 1011.3
20260502022039 41 329 0.0 2.0 0.00 0.01 0.01 78 1011.3
20260502021018 42 344 0.0 2.0 0.00 0.01 0.01 79 1011.4
20260502020019 43 340 1.0 2.0 0.00 0.01 0.01 77 1011.5
20260502015019 43 164 0.0 2.0 0.00 0.01 0.01 77 1011.5
20260502014100 44 241 0.0 1.0 0.00 0.01 0.01 76 1011.4
20260502013039 45 7 0.0 1.0 0.00 0.01 0.01 76 1011.4
20260502012019 45 228 0.0 1.0 0.00 0.01 0.01 70 1011.3
20260502011016 46 42 0.0 2.0 0.00 0.01 0.01 70 1011.2
20260502010016 47 45 0.0 1.0 0.00 0.01 0.01 70 1011.1
20260502005020 48 351 0.0 2.0 0.00 0.01 0.01 67 1011.0
20260502004018 49 330 1.0 2.0 0.00 0.01 0.01 57 1010.9
20260502003018 51 319 0.0 2.0 0.00 0.01 0.01 55 1010.7
20260502002017 53 323 0.0 1.0 0.00 0.01 0.01 47 1010.6
20260502001018 54 327 0.0 3.0 0.00 0.01 0.01 38 1010.5
20260502000018 55 313 1.0 4.0 0.00 0.01 0.01 36 1010.3
20260501235018 56 306 2.0 6.0 0.00 0.01 0.01 34 1010.1
20260501234021 56 298 3.0 7.0 0.00 0.01 0.01 34 1010.0
20260501233018 57 298 3.0 7.0 0.00 0.01 0.01 33 1009.9
20260501232019 58 290 5.0 11.0 0.00 0.01 0.01 32 1009.7
20260501231059 59 276 5.0 10.0 0.00 0.01 0.01 33 1009.6
20260501230019 59 287 4.0 9.0 0.00 0.01 0.01 32 1009.5
20260501225039 59 293 5.0 11.0 0.00 0.01 0.01 32 1009.4
20260501224016 60 271 6.0 11.0 0.00 0.01 0.01 33 1009.3
20260501223037 60 278 5.0 11.0 0.00 0.01 0.01 32 1009.2
20260501222020 60 282 5.0 10.0 0.00 0.01 0.01 33 1009.0
20260501221019 60 271 6.0 11.0 0.00 0.01 0.01 34 1008.9
20260501220020 60 275 7.0 13.0 0.00 0.01 0.01 34 1008.7
20260501215020 60 268 6.0 13.0 0.00 0.01 0.01 34 1008.6
20260501214017 60 268 7.0 12.0 0.00 0.01 0.01 35 1008.6
20260501213017 60 274 6.0 12.0 0.00 0.01 0.01 34 1008.6
20260501212018 60 277 6.0 13.0 0.00 0.01 0.01 35 1008.4
20260501211018 60 281 6.0 15.0 0.00 0.01 0.01 36 1008.3
20260501210018 60 286 6.0 16.0 0.00 0.01 0.01 34 1008.2
20260501205018 60 276 6.0 13.0 0.00 0.01 0.01 33 1008.1
20260501204018 59 274 7.0 15.0 0.00 0.01 0.01 34 1008.2
20260501203018 59 273 9.0 19.0 0.00 0.01 0.01 33 1008.2
20260501202039 60 273 8.0 18.0 0.00 0.01 0.01 34 1008.1
20260501201019 60 268 8.0 16.0 0.00 0.01 0.01 37 1008.1
20260501200019 60 277 7.0 16.0 0.00 0.01 0.01 40 1008.1
20260501195040 60 294 6.0 12.0 0.00 0.01 0.01 41 1008.1
20260501194039 60 309 6.0 13.0 0.00 0.01 0.01 40 1008.1
20260501193040 59 301 6.0 13.0 0.00 0.01 0.01 42 1008.0
20260501192040 59 284 7.0 16.0 0.01 0.01 0.01 43 1008.1
20260501191020 59 279 7.0 12.0 0.01 0.01 0.01 44 1008.2
20260501190017 59 289 6.0 17.0 0.01 0.02 0.01 45 1008.2
20260501185017 58 280 7.0 15.0 0.01 0.04 0.01 46 1008.1
20260501184017 58 277 7.0 17.0 0.01 0.06 0.01 46 1008.1
20260501183020 58 287 7.0 14.0 0.01 0.07 0.01 46 1008.2
20260501182017 58 293 6.0 11.0 0.00 0.07 0.00 47 1008.1
20260501181018 58 277 7.0 15.0 0.00 0.07 0.00 48 1008.1
20260501180018 58 298 6.0 10.0 0.00 0.08 0.00 49 1008.1
20260501175018 58 280 7.0 13.0 0.00 0.08 0.00 50 1008.1
20260501174018 57 290 5.0 13.0 0.00 0.08 0.00 52 1008.1
20260501173019 57 273 6.0 13.0 0.00 0.08 0.00 54 1008.1
20260501172039 57 288 5.0 10.0 0.00 0.09 0.00 54 1008.2